Weather History for KROG - January, 2013

Change the Weather History Date:

Tuesday, January 1, 2013

  Actual Average Record
Temperature  
Mean Temperature 30 °F -  
Max Temperature 37 °F 44 °F 69 °F (2006)
Min Temperature 24 °F 28 °F 10 °F (2001)
Degree Days  
Heating Degree Days 34    
Moisture  
Dew Point 31 °F    
Average Humidity 96    
Maximum Humidity 100    
Minimum Humidity 91    
Precipitation  
Precipitation 0.00 in - - ()
Sea Level Pressure  
Sea Level Pressure 30.14 in    
Wind  
Wind Speed 6 mph (North)    
Max Wind Speed 12 mph    
Max Gust Speed -    
Visibility 3 miles    
Events Fog    
Averages and records for this station are not official NWS values.
T = Trace of Precipitation, MM = Missing Value Source: NWS Daily Summary

Daily Weather History Graph

Daily Weather History Graph

Search for Another Location

Airport or City:

Trip Planner

Search our weather history database for the weather conditions in past years. The results will help you decide how hot, cold, wet, or windy it might be!

Date:

Astronomy

Jan. 01, 2013 Rise Set
Actual Time 7:28 AM CST 5:12 PM CST
Civil Twilight 6:59 AM CST 5:41 PM CST
Nautical Twilight 6:27 AM CST 6:13 PM CST
Astronomical Twilight 5:56 AM CST 6:44 PM CST
Moon 9:35 PM CST (1/1) 9:48 AM CST (1/1)
Length of Visible Light 10h 41m
Length of Day
9h 44m
Waning Gibbous, 83% of the Moon is Illuminated
Jan 1
Waning Gibbous
Jan 4
Last Quarter
Jan 11
New
Jan 18
First Quarter
Jan 26
Full

Hourly Weather History & Observations

Time (CST) Temp. Windchill Dew Point Humidity Pressure Visibility Wind Dir Wind Speed Gust Speed Precip Events Conditions
12:37 AM 37.4 °F 33.8 °F 35.6 °F 93% 30.04 in 1.2 mi WNW 4.6 mph - N/A   Overcast
12:42 AM 37.4 °F 32.1 °F 35.6 °F 93% 30.04 in 1.0 mi NW 6.9 mph - N/A   Overcast
12:59 AM 37.0 °F 31.6 °F 36.0 °F 96% 30.05 in 2.0 mi NW 6.9 mph - N/A   Overcast
1:05 AM 37.4 °F 31.4 °F 35.6 °F 93% 30.03 in 3.0 mi WNW 8.1 mph - N/A   Overcast
1:22 AM 37.4 °F 33.8 °F 35.6 °F 93% 30.04 in 2.5 mi Variable 4.6 mph - N/A   Overcast
1:39 AM 35.6 °F 30.7 °F 35.6 °F 100% 30.03 in 3.0 mi NNW 5.8 mph - N/A   Overcast
1:57 AM 35.6 °F 29.9 °F 35.6 °F 100% 30.04 in 6.0 mi NW 6.9 mph - N/A   Overcast
1:59 AM 36.0 °F 31.1 °F 35.1 °F 97% 30.06 in 6.0 mi NW 5.8 mph - N/A   Overcast
2:22 AM 35.6 °F 31.7 °F 35.6 °F 100% 30.04 in 2.5 mi NNW 4.6 mph - N/A   Overcast
2:29 AM 35.6 °F 31.7 °F 35.6 °F 100% 30.04 in 1.8 mi NNW 4.6 mph - N/A   Overcast
3:15 AM 35.6 °F 32.8 °F 35.6 °F 100% 30.04 in 3.0 mi NW 3.5 mph - N/A   Overcast
3:57 AM 36.0 °F 30.3 °F 35.1 °F 97% 30.06 in 6.0 mi North 6.9 mph - N/A   Overcast
4:34 AM 35.6 °F 31.7 °F 35.6 °F 100% 30.06 in 2.5 mi NNW 4.6 mph - N/A   Overcast
4:41 AM 35.6 °F 31.7 °F 35.6 °F 100% 30.06 in 2.0 mi NW 4.6 mph - N/A   Overcast
5:00 AM 35.6 °F 29.9 °F 33.8 °F 93% 30.06 in 3.0 mi North 6.9 mph - N/A   Overcast
5:46 AM 35.6 °F 31.7 °F 33.8 °F 93% 30.08 in 4.0 mi NNW 4.6 mph - N/A   Overcast
6:20 AM 35.6 °F 32.8 °F 33.8 °F 93% 30.10 in 1.0 mi NNW 3.5 mph - N/A   Overcast
6:42 AM 35.6 °F 30.7 °F 33.8 °F 93% 30.11 in 0.8 mi NNW 5.8 mph - N/A   Overcast
6:57 AM 34.0 °F 28.8 °F 33.1 °F 96% 30.13 in 0.5 mi North 5.8 mph - N/A Fog Fog
7:48 AM 33.8 °F 27.7 °F 33.8 °F 100% 30.09 in 1.0 mi North 6.9 mph - N/A   Overcast
7:57 AM 33.8 °F 25.8 °F 33.8 °F 100% 30.07 in 0.8 mi NNE 10.4 mph - N/A   Overcast
7:59 AM 34.0 °F 26.0 °F 33.1 °F 96% 30.11 in 0.8 mi NNE 10.4 mph - N/A   Overcast
8:06 AM 33.8 °F 26.4 °F 33.8 °F 100% 30.10 in 1.0 mi North 9.2 mph - N/A   Overcast
8:11 AM 33.8 °F 27.0 °F 32.0 °F 93% 30.11 in 0.8 mi North 8.1 mph - N/A   Overcast
8:19 AM 33.8 °F 25.3 °F 32.0 °F 93% 30.10 in 0.5 mi North 11.5 mph - N/A Fog Fog
8:31 AM 33.8 °F 25.8 °F 32.0 °F 93% 30.11 in 0.8 mi North 10.4 mph - N/A   Overcast
8:36 AM 33.8 °F 27.0 °F 32.0 °F 93% 30.12 in 1.0 mi NNE 8.1 mph - N/A   Overcast
9:21 AM 33.8 °F 28.6 °F 32.0 °F 93% 30.14 in 1.0 mi North 5.8 mph - N/A   Overcast
9:27 AM 33.8 °F 27.7 °F 32.0 °F 93% 30.15 in 0.8 mi North 6.9 mph - N/A   Overcast
9:39 AM 32.0 °F 24.2 °F 30.2 °F 93% 30.15 in 1.0 mi NNE 9.2 mph - N/A   Overcast
10:23 AM 33.8 °F 25.8 °F 32.0 °F 93% 30.17 in 1.2 mi NNE 10.4 mph - N/A   Overcast
10:33 AM 32.0 °F 23.6 °F 30.2 °F 93% 30.16 in 1.0 mi NNE 10.4 mph - N/A   Overcast
10:42 AM 33.8 °F 27.7 °F 32.0 °F 93% 30.18 in 0.8 mi North 6.9 mph - N/A   Overcast
10:57 AM 32.0 °F 25.6 °F 30.9 °F 96% 30.21 in 0.8 mi North 6.9 mph - N/A   Overcast
11:57 AM 32.0 °F 24.2 °F 30.9 °F 96% 30.19 in 1.5 mi NNW 9.2 mph - N/A   Overcast
12:20 PM 30.2 °F 22.6 °F 30.2 °F 100% 30.15 in 1.0 mi NNW 8.1 mph - N/A   Overcast
12:40 PM 30.2 °F 23.4 °F 30.2 °F 100% 30.15 in 1.2 mi North 6.9 mph - N/A   Overcast
12:57 PM 30.9 °F 23.5 °F 30.0 °F 96% 30.18 in 1.5 mi NNW 8.1 mph - N/A   Overcast
1:36 PM 30.2 °F 24.3 °F 28.4 °F 93% 30.15 in 2.0 mi North 5.8 mph - N/A   Overcast
1:57 PM 30.0 °F 21.7 °F 28.9 °F 96% 30.19 in 1.8 mi NNW 9.2 mph - N/A   Overcast
2:54 PM 28.4 °F 21.2 °F 28.4 °F 100% 30.18 in 2.0 mi North 6.9 mph - N/A   Overcast
3:04 PM 28.4 °F 20.4 °F 28.4 °F 100% 30.18 in 3.0 mi NNW 8.1 mph - N/A   Overcast
3:21 PM 28.4 °F 21.2 °F 28.4 °F 100% 30.18 in 2.5 mi North 6.9 mph - N/A   Overcast
3:57 PM 28.4 °F 23.3 °F 28.4 °F 100% 30.19 in 3.0 mi North 4.6 mph - N/A   Overcast
3:59 PM 28.4 °F 21.2 °F 28.4 °F 100% 30.19 in 2.5 mi NNW 6.9 mph - N/A   Overcast
4:01 PM 28.9 °F 21.1 °F 28.0 °F 96% 30.22 in 2.5 mi NNW 8.1 mph - N/A   Overcast
4:12 PM 28.4 °F 21.2 °F 28.4 °F 100% 30.20 in 3.0 mi NNW 6.9 mph - N/A   Overcast
4:24 PM 28.4 °F 20.4 °F 28.4 °F 100% 30.20 in 2.5 mi NNW 8.1 mph - N/A   Overcast
4:30 PM 28.4 °F 21.2 °F 28.4 °F 100% 30.20 in 3.0 mi NNW 6.9 mph - N/A   Overcast
4:57 PM 28.0 °F 21.7 °F 28.0 °F 100% 30.23 in 3.0 mi North 5.8 mph - N/A   Overcast
5:05 PM 28.4 °F 22.2 °F 26.6 °F 93% 30.20 in 3.0 mi North 5.8 mph - N/A   Overcast
5:57 PM 28.0 °F 21.7 °F 27.0 °F 96% 30.24 in 6.0 mi North 5.8 mph - N/A   Overcast
6:52 PM 26.6 °F 21.2 °F 26.6 °F 100% 30.21 in 7.0 mi North 4.6 mph - N/A   Overcast
6:57 PM 27.0 °F 20.5 °F 26.1 °F 96% 30.25 in 7.0 mi North 5.8 mph - N/A   Overcast
7:05 PM 26.6 °F 21.2 °F 26.6 °F 100% 30.22 in 7.0 mi North 4.6 mph - N/A   Overcast
7:17 PM 28.4 °F 22.2 °F 26.6 °F 93% 30.23 in 6.0 mi NW 5.8 mph - N/A   Overcast
7:24 PM 28.4 °F 23.3 °F 26.6 °F 93% 30.23 in 6.0 mi NNW 4.6 mph - N/A   Overcast
8:57 PM 26.1 °F 19.4 °F 25.0 °F 96% 30.25 in 8.0 mi North 5.8 mph - N/A   Overcast
10:57 PM 25.0 °F 19.3 °F 23.0 °F 92% 30.27 in 7.0 mi Variable 4.6 mph - N/A   Overcast
11:08 PM 24.8 °F 19.1 °F 23.0 °F 93% 30.22 in 6.0 mi NNW 4.6 mph - N/A   Overcast
11:57 PM 24.1 °F 17.0 °F 21.9 °F 91% 30.27 in 6.0 mi NE 5.8 mph - N/A   Overcast